Location: Fernhill
(41.0167°S, 175.6333°E)
Time: 14:13:51
(UTC+00:00)

SPOT 3 Rocket - Visible Passes

Search period start: 14 February 2026 00:00
Search period end: 24 February 2026 00:00
Orbit: 775 x 790 km, 98.5° (Epoch: 13 February)

Date Brightness Start Highest point End Pass type
(mag) Time Alt. Az. Time Alt. Az. Time Alt. Az.
14 Feb 4.4 10:24:11 10° SSE 10:27:39 40° SE 10:27:39 40° SE visible
14 Feb 5.7 12:04:45 10° SSW 12:08:09 18° WSW 12:08:11 18° WSW visible
15 Feb 5.1 09:52:49 10° SE 09:55:19 23° ESE 09:55:19 23° ESE visible
15 Feb 5.1 11:32:03 10° S 11:35:52 31° SW 11:35:52 31° SW visible
16 Feb 5.7 09:22:18 10° SE 09:23:00 12° ESE 09:23:00 12° ESE visible
16 Feb 4.5 10:59:53 10° S 11:03:32 44° SSW 11:03:32 44° SSW visible
17 Feb 4.6 10:28:03 10° SSE 10:31:13 37° SSE 10:31:13 37° SSE visible
17 Feb 5.9 12:08:49 10° SSW 12:11:46 17° WSW 12:11:46 17° WSW visible
18 Feb 5.2 09:56:37 10° SSE 09:58:53 22° SE 09:58:53 22° SE visible
18 Feb 5.3 11:36:02 10° S 11:39:27 28° SW 11:39:27 28° SW visible
19 Feb 5.7 09:25:56 10° SE 09:26:34 12° ESE 09:26:34 12° ESE visible
19 Feb 4.8 11:03:48 10° S 11:07:06 38° SSW 11:07:06 38° SSW visible
20 Feb 4.8 10:31:55 10° SSE 10:34:47 33° SSE 10:34:47 33° SSE visible
20 Feb 6.0 12:12:54 10° SSW 12:15:20 15° SW 12:15:20 15° SW visible
21 Feb 5.3 10:00:26 10° SSE 10:02:27 21° SE 10:02:27 21° SE visible
21 Feb 5.5 11:40:00 10° S 11:43:00 25° SW 11:43:00 25° SW visible
22 Feb 5.8 09:29:37 10° SE 09:30:07 12° SE 09:30:07 12° SE visible
22 Feb 5.1 11:07:42 10° S 11:10:40 33° SSW 11:10:40 33° SSW visible
23 Feb 5.1 10:35:48 10° SSE 10:38:19 29° SSE 10:38:19 29° SSE visible
23 Feb 6.1 12:17:02 10° SSW 12:18:52 14° SW 12:18:52 14° SW visible
